Retour au catalogue

STARLINK-34725

ActifCommunicationsSSO
NORAD 64843·PAYLOAD·🇺🇸 United States

Lancé Jul 19, 2025 depuis Vandenberg Space Force Base

Loading…

Prochains Passages (prochaines 24 heures)

TLE

FraisSource: CelesTrak SupGP

Époque: Sep 14, 2026, 20:51 UTC

1 64843C 25152B   26257.86923611  .00030621  00000+0  95081-3 0  2572
2 64843  97.2841 108.4523 0001810  91.9534  32.1898 15.33413925    10

Suivez STARLINK-34725 en temps réel avec AllMySat

Download on the App Store